User: anonymous   Login
Location: Unspecified
(0.0000°N, 0.0000°E)
Time: 11:15:53
(UTC+02:00)
Language:

Cosmos 2263 Rocket - Orbit

View from above orbital plane
View from above orbital plane
View from above satellite
View from above satellite

Ground track
Ground track

The orbit data is extracted from the following two-line orbital elements,

1 22803U 93059B   16127.18908010  .00000230  00000-0  13865-3 0  9996
2 22803  70.9919  27.0568 0019337 283.5710  76.3259 14.16741331170639
Epoch (UTC): 06 May 2016 04:32:16
Eccentricity: 0.0019337
inclination: 70.9919°
perigee height: 822 km
apogee height: 850 km
right ascension of ascending node: 27.0568°
argument of perigee: 283.5710°
revolutions per day: 14.16741331
mean anomaly at epoch: 76.3259°
orbit number at epoch: 17063

The dashed part of the orbit path shows where the satellite is in the earth's shadow,  

DLR